DLH1785 EGKK-EDDF

Flight info

Callsign DLH1785
Flight time 1h 4m
Altitude 35000
Route DVR UL9 KONAN UL607 KOK DCT REMBA UL607 SPI T180 NIVNU/N0399F230 T847 IMCOM IMCOM1B
Aircraft A21N/M-SDE2E3FGHIRWXY/LB1

Departure

Time 2026-05-04 19:01
Airport London Gatwick Airport (EGKK)

Arrival

Time 2026-05-04 20:05
Airport Frankfurt Main Airport (EDDF)
Time Latitude Longitude Altitude Speed Heading
2026-05-04 18:37 51.15590 -0.16768 205 ft 0 kts 167°
2026-05-04 18:43 51.15607 -0.16775 207 ft 8 kts 169°
2026-05-04 18:43 51.15648 -0.16781 205 ft 4 kts 187°
2026-05-04 18:43 51.15668 -0.16770 211 ft 2 kts 224°
2026-05-04 18:43 51.15675 -0.16756 216 ft 2 kts 243°
2026-05-04 18:44 51.15679 -0.16741 214 ft 2 kts 251°
2026-05-04 18:44 51.15681 -0.16729 210 ft 2 kts 254°
2026-05-04 18:44 51.15685 -0.16709 211 ft 0 kts 256°
2026-05-04 18:47 51.15684 -0.16716 211 ft 4 kts 258°
2026-05-04 18:47 51.15674 -0.16794 214 ft 10 kts 258°
2026-05-04 18:47 51.15656 -0.16921 207 ft 12 kts 257°
2026-05-04 18:48 51.15677 -0.17030 212 ft 9 kts 333°
2026-05-04 18:48 51.15747 -0.17054 206 ft 12 kts 348°
2026-05-04 18:48 51.15808 -0.17111 207 ft 12 kts 294°
2026-05-04 18:48 51.15792 -0.17259 210 ft 14 kts 257°
2026-05-04 18:49 51.15770 -0.17421 207 ft 17 kts 258°
2026-05-04 18:49 51.15741 -0.17627 208 ft 21 kts 257°
2026-05-04 18:49 51.15716 -0.17812 204 ft 764 kts 258°
2026-05-04 18:49 51.15712 -0.17843 205 ft 7 kts 258°
2026-05-04 18:50 51.15699 -0.17934 209 ft 10 kts 257°
2026-05-04 18:50 51.15683 -0.18052 208 ft 12 kts 257°
2026-05-04 18:50 51.15664 -0.18189 208 ft 12 kts 257°
2026-05-04 18:50 51.15647 -0.18305 210 ft 12 kts 253°
2026-05-04 18:51 51.15569 -0.18337 208 ft 13 kts 168°
2026-05-04 18:51 51.15483 -0.18308 211 ft 14 kts 168°
2026-05-04 18:51 51.15383 -0.18272 212 ft 15 kts 166°
2026-05-04 18:51 51.15295 -0.18240 205 ft 12 kts 168°
2026-05-04 18:52 51.15234 -0.18219 207 ft 0 kts 168°
2026-05-04 18:52 51.15231 -0.18218 206 ft 3 kts 168°
2026-05-04 18:52 51.15187 -0.18248 213 ft 10 kts 234°
2026-05-04 18:53 51.15173 -0.18355 209 ft 11 kts 259°
2026-05-04 18:53 51.15157 -0.18487 209 ft 15 kts 259°
2026-05-04 18:53 51.15131 -0.18693 204 ft 21 kts 257°
2026-05-04 18:53 51.15098 -0.18943 212 ft 25 kts 259°
2026-05-04 18:54 51.15065 -0.19214 205 ft 23 kts 259°
2026-05-04 18:54 51.15038 -0.19429 212 ft 17 kts 256°
2026-05-04 18:54 51.15015 -0.19582 214 ft 12 kts 256°
2026-05-04 18:54 51.14993 -0.19723 205 ft 13 kts 256°
2026-05-04 18:55 51.14970 -0.19880 213 ft 17 kts 258°
2026-05-04 18:55 51.14919 -0.20254 204 ft 15 kts 257°
2026-05-04 18:55 51.14894 -0.20439 207 ft 23 kts 258°
2026-05-04 18:56 51.14855 -0.20726 210 ft 25 kts 258°
2026-05-04 18:56 51.14823 -0.20966 211 ft 19 kts 258°
2026-05-04 18:56 51.14793 -0.21146 211 ft 15 kts 244°
2026-05-04 18:56 51.14767 -0.21300 213 ft 13 kts 259°
2026-05-04 18:57 51.14733 -0.21401 211 ft 9 kts 204°
2026-05-04 18:57 51.14675 -0.21377 207 ft 9 kts 149°
2026-05-04 18:57 51.14634 -0.21329 211 ft 3 kts 154°
2026-05-04 18:57 51.14613 -0.21321 213 ft 3 kts 166°
2026-05-04 18:58 51.14611 -0.21320 213 ft 0 kts 166°
2026-05-04 18:59 51.14581 -0.21308 204 ft 11 kts 164°
2026-05-04 18:59 51.14517 -0.21184 212 ft 17 kts 93°
2026-05-04 19:00 51.14532 -0.21041 205 ft 4 kts 78°
2026-05-04 19:00 51.14538 -0.20992 208 ft 26 kts 78°
2026-05-04 19:00 51.14636 -0.20281 207 ft 105 kts 77°
2026-05-04 19:00 51.14764 -0.19351 208 ft 154 kts 77°
2026-05-04 19:01 51.15015 -0.17460 733 ft 181 kts 78°
2026-05-04 19:01 51.15272 -0.15557 1790 ft 172 kts 76°
2026-05-04 19:01 51.15668 -0.12851 2456 ft 204 kts 76°
2026-05-04 19:01 51.15989 -0.10518 2924 ft 232 kts 77°
2026-05-04 19:02 51.16355 -0.07839 3479 ft 262 kts 77°
2026-05-04 19:02 51.16625 -0.05858 3970 ft 279 kts 77°
2026-05-04 19:02 51.16903 -0.02801 5206 ft 278 kts 90°
2026-05-04 19:02 51.16846 0.00327 6305 ft 286 kts 93°
2026-05-04 19:03 51.16759 0.03477 7378 ft 290 kts 92°
2026-05-04 19:03 51.16715 0.06715 8426 ft 295 kts 90°
2026-05-04 19:03 51.16697 0.10015 9421 ft 300 kts 90°
2026-05-04 19:03 51.16664 0.13360 10397 ft 304 kts 91°
2026-05-04 19:04 51.16620 0.16783 11172 ft 317 kts 91°
2026-05-04 19:04 51.16590 0.19200 11523 ft 330 kts 91°
2026-05-04 19:04 51.16545 0.23235 12047 ft 352 kts 91°
2026-05-04 19:04 51.16534 0.24246 12194 ft 356 kts 91°
2026-05-04 19:05 51.16533 0.24276 12201 ft 356 kts 91°
2026-05-04 19:05 51.16483 0.28179 13162 ft 358 kts 91°
2026-05-04 19:05 51.16432 0.32173 14097 ft 363 kts 91°
2026-05-04 19:05 51.16380 0.36227 14925 ft 368 kts 91°
2026-05-04 19:06 51.16325 0.40321 15796 ft 372 kts 91°
2026-05-04 19:06 51.16269 0.44464 16587 ft 377 kts 91°
2026-05-04 19:06 51.16210 0.48667 17375 ft 381 kts 91°
2026-05-04 19:06 51.16152 0.52655 18085 ft 385 kts 91°
2026-05-04 19:07 51.16089 0.56953 18808 ft 390 kts 91°
2026-05-04 19:07 51.16023 0.61293 19529 ft 394 kts 91°
2026-05-04 19:07 51.15955 0.65678 20198 ft 398 kts 91°
2026-05-04 19:07 51.15884 0.70116 20857 ft 402 kts 91°
2026-05-04 19:08 51.15812 0.74581 21492 ft 406 kts 91°
2026-05-04 19:08 51.15737 0.79102 22110 ft 410 kts 91°
2026-05-04 19:08 51.15659 0.83666 22709 ft 414 kts 91°
2026-05-04 19:08 51.15579 0.88258 23287 ft 417 kts 91°
2026-05-04 19:09 51.15497 0.92898 23854 ft 421 kts 91°
2026-05-04 19:09 51.15411 0.97596 24398 ft 425 kts 92°
2026-05-04 19:09 51.15323 1.02317 24915 ft 428 kts 92°
2026-05-04 19:09 51.15234 1.07020 25424 ft 432 kts 92°
2026-05-04 19:10 51.15140 1.11877 25939 ft 435 kts 92°
2026-05-04 19:10 51.15045 1.16661 26410 ft 438 kts 92°
2026-05-04 19:10 51.14946 1.21527 26882 ft 442 kts 92°
2026-05-04 19:10 51.14844 1.26445 27343 ft 444 kts 92°
2026-05-04 19:11 51.14740 1.31384 27799 ft 447 kts 92°
2026-05-04 19:11 51.14633 1.36379 28050 ft 456 kts 92°
2026-05-04 19:11 51.14520 1.41491 28062 ft 469 kts 92°
2026-05-04 19:11 51.14403 1.46767 28086 ft 483 kts 92°
2026-05-04 19:12 51.14280 1.52129 28531 ft 484 kts 92°
2026-05-04 19:12 51.14032 1.62690 29809 ft 479 kts 92°
2026-05-04 19:12 51.13900 1.68072 30329 ft 479 kts 92°
2026-05-04 19:13 51.13770 1.73384 30562 ft 486 kts 92°
2026-05-04 19:13 51.13494 1.84256 31011 ft 497 kts 92°
2026-05-04 19:13 51.13352 1.89730 31636 ft 493 kts 92°
2026-05-04 19:14 51.13208 1.95186 32132 ft 492 kts 92°
2026-05-04 19:14 51.13037 2.00597 32578 ft 492 kts 95°
2026-05-04 19:14 51.12710 2.06053 33030 ft 491 kts 95°
2026-05-04 19:14 51.12460 2.11416 33477 ft 490 kts 94°
2026-05-04 19:15 51.12211 2.16820 33907 ft 489 kts 95°
2026-05-04 19:15 51.11903 2.22204 34316 ft 488 kts 96°
2026-05-04 19:15 51.11578 2.27610 34709 ft 488 kts 95°
2026-05-04 19:15 51.11290 2.32980 35038 ft 489 kts 95°
2026-05-04 19:16 51.11007 2.38427 35003 ft 494 kts 95°
2026-05-04 19:16 51.10384 2.49210 34992 ft 487 kts 95°
2026-05-04 19:17 51.09780 2.59947 34996 ft 486 kts 95°
2026-05-04 19:17 51.08572 2.70499 35011 ft 486 kts 107°
2026-05-04 19:18 51.06624 2.80743 35005 ft 486 kts 107°
2026-05-04 19:18 51.04800 2.91090 35009 ft 485 kts 107°
2026-05-04 19:19 51.02883 3.01383 35006 ft 485 kts 107°
2026-05-04 19:19 51.01012 3.11668 35008 ft 485 kts 107°
2026-05-04 19:20 50.99098 3.21947 35007 ft 485 kts 107°
2026-05-04 19:20 50.97194 3.32227 35008 ft 486 kts 107°
2026-05-04 19:21 50.95277 3.42456 35006 ft 487 kts 107°
2026-05-04 19:21 50.93347 3.52733 35012 ft 487 kts 107°
2026-05-04 19:22 50.91406 3.62990 35006 ft 486 kts 107°
2026-05-04 19:22 50.89457 3.73247 35008 ft 486 kts 107°
2026-05-04 19:23 50.87497 3.83497 35012 ft 485 kts 107°
2026-05-04 19:23 50.85529 3.93740 35008 ft 485 kts 107°
2026-05-04 19:24 50.83561 4.03919 35007 ft 486 kts 108°
2026-05-04 19:24 50.81589 4.14075 35007 ft 486 kts 108°
2026-05-04 19:25 50.79591 4.24305 35012 ft 486 kts 108°
2026-05-04 19:25 50.77591 4.34492 35012 ft 485 kts 108°
2026-05-04 19:26 50.75580 4.44684 35007 ft 486 kts 108°
2026-05-04 19:26 50.73559 4.54867 35014 ft 487 kts 108°
2026-05-04 19:27 50.71515 4.65116 35007 ft 496 kts 108°
2026-05-04 19:27 50.69429 4.75521 35010 ft 498 kts 108°
2026-05-04 19:28 50.67326 4.85956 35011 ft 501 kts 108°
2026-05-04 19:28 50.65196 4.96449 35011 ft 503 kts 108°
2026-05-04 19:29 50.63037 5.06932 35014 ft 504 kts 108°
2026-05-04 19:29 50.60871 5.17450 35005 ft 503 kts 108°
2026-05-04 19:30 50.58709 5.27858 35006 ft 503 kts 109°
2026-05-04 19:30 50.56523 5.38349 35005 ft 504 kts 109°
2026-05-04 19:31 50.54326 5.48828 35008 ft 505 kts 109°
2026-05-04 19:31 50.52118 5.59309 35010 ft 504 kts 109°
2026-05-04 19:32 50.50124 5.69879 35013 ft 505 kts 107°
2026-05-04 19:32 50.48069 5.80422 35012 ft 505 kts 107°
2026-05-04 19:33 50.46137 5.90996 34926 ft 493 kts 107°
2026-05-04 19:33 50.45172 5.96024 34646 ft 473 kts 107°
2026-05-04 19:33 50.44220 6.00948 33513 ft 474 kts 107°
2026-05-04 19:33 50.43288 6.05881 32280 ft 482 kts 107°
2026-05-04 19:34 50.42338 6.10956 31272 ft 483 kts 107°
2026-05-04 19:34 50.41375 6.16004 30232 ft 484 kts 107°
2026-05-04 19:34 50.40393 6.21073 29103 ft 486 kts 107°
2026-05-04 19:34 50.39417 6.26152 27929 ft 488 kts 107°
2026-05-04 19:35 50.38442 6.31250 27173 ft 481 kts 107°
2026-05-04 19:35 50.37500 6.36151 27138 ft 457 kts 107°
2026-05-04 19:35 50.36608 6.40814 27125 ft 434 kts 105°
2026-05-04 19:35 50.36124 6.45332 26615 ft 419 kts 96°
2026-05-04 19:36 50.35880 6.49908 25802 ft 421 kts 94°
2026-05-04 19:36 50.35661 6.54439 25254 ft 415 kts 95°
2026-05-04 19:36 50.35363 6.58907 24628 ft 411 kts 97°
2026-05-04 19:36 50.35044 6.63290 23995 ft 408 kts 96°
2026-05-04 19:37 50.34766 6.67681 23396 ft 404 kts 95°
2026-05-04 19:37 50.34493 6.72033 22782 ft 400 kts 100°
2026-05-04 19:37 50.33745 6.76178 22182 ft 395 kts 111°
2026-05-04 19:37 50.32702 6.80135 21576 ft 391 kts 115°
2026-05-04 19:38 50.31599 6.84005 20970 ft 388 kts 114°
2026-05-04 19:38 50.30631 6.87927 20382 ft 385 kts 110°
2026-05-04 19:38 50.29779 6.91881 19797 ft 381 kts 110°
2026-05-04 19:38 50.28879 6.95765 19211 ft 377 kts 112°
2026-05-04 19:39 50.27923 6.99565 18480 ft 373 kts 112°
2026-05-04 19:39 50.26992 7.03348 17706 ft 370 kts 111°
2026-05-04 19:39 50.26108 7.07101 16963 ft 365 kts 111°
2026-05-04 19:39 50.25228 7.10809 16250 ft 362 kts 111°
2026-05-04 19:40 50.24640 7.13225 15766 ft 359 kts 112°
2026-05-04 19:40 50.23456 7.18071 14791 ft 354 kts 111°
2026-05-04 19:40 50.22883 7.20441 14311 ft 351 kts 111°
2026-05-04 19:40 50.22023 7.24006 13709 ft 349 kts 111°
2026-05-04 19:41 50.21171 7.27522 13224 ft 344 kts 111°
2026-05-04 19:41 50.20046 7.32134 12453 ft 341 kts 112°
2026-05-04 19:41 50.19202 7.35584 11903 ft 339 kts 111°
2026-05-04 19:41 50.18369 7.39003 11382 ft 335 kts 112°
2026-05-04 19:42 50.17810 7.41295 11034 ft 333 kts 112°
2026-05-04 19:42 50.17012 7.44559 11002 ft 326 kts 112°
2026-05-04 19:42 50.16182 7.47927 11005 ft 331 kts 112°
2026-05-04 19:42 50.15358 7.51284 11008 ft 336 kts 112°
2026-05-04 19:43 50.14528 7.54669 11007 ft 333 kts 112°
2026-05-04 19:43 50.13698 7.58037 11009 ft 334 kts 112°
2026-05-04 19:43 50.12859 7.61424 11010 ft 336 kts 112°
2026-05-04 19:43 50.12024 7.64810 11008 ft 334 kts 112°
2026-05-04 19:44 50.11148 7.68217 11006 ft 334 kts 117°
2026-05-04 19:44 50.09935 7.71219 11016 ft 332 kts 127°
2026-05-04 19:44 50.08587 7.74144 11017 ft 332 kts 127°
2026-05-04 19:44 50.07253 7.77089 11018 ft 332 kts 126°
2026-05-04 19:45 50.05953 7.80069 11014 ft 333 kts 126°
2026-05-04 19:45 50.04663 7.83003 10818 ft 325 kts 126°
2026-05-04 19:45 50.03354 7.85912 10153 ft 327 kts 127°
2026-05-04 19:45 50.02087 7.88734 10127 ft 307 kts 126°
2026-05-04 19:46 50.00889 7.91432 9766 ft 302 kts 126°
2026-05-04 19:46 49.99688 7.94116 9234 ft 303 kts 126°
2026-05-04 19:46 49.98633 7.96919 8988 ft 293 kts 119°
2026-05-04 19:46 49.97637 7.99719 9015 ft 302 kts 121°
2026-05-04 19:47 49.96616 8.02466 9017 ft 298 kts 121°
2026-05-04 19:47 49.95660 8.05353 9000 ft 301 kts 107°
2026-05-04 19:47 49.95554 8.08592 9036 ft 306 kts 77°
2026-05-04 19:47 49.96381 8.11552 9024 ft 300 kts 52°
2026-05-04 19:48 49.97676 8.14122 9002 ft 298 kts 49°
2026-05-04 19:48 49.98997 8.16616 9024 ft 301 kts 49°
2026-05-04 19:48 50.00303 8.19143 9015 ft 299 kts 50°
2026-05-04 19:48 50.01595 8.21688 9009 ft 300 kts 50°
2026-05-04 19:49 50.02892 8.24229 9004 ft 299 kts 49°
2026-05-04 19:49 50.04180 8.26740 9023 ft 299 kts 49°
2026-05-04 19:49 50.05488 8.29295 9012 ft 300 kts 50°
2026-05-04 19:49 50.06783 8.31831 9013 ft 299 kts 50°
2026-05-04 19:50 50.08080 8.34377 9009 ft 300 kts 50°
2026-05-04 19:50 50.09363 8.36926 9023 ft 300 kts 53°
2026-05-04 19:50 50.10289 8.39855 9031 ft 304 kts 68°
2026-05-04 19:50 50.10991 8.42951 9015 ft 301 kts 70°
2026-05-04 19:51 50.11700 8.46036 8997 ft 299 kts 68°
2026-05-04 19:51 50.12425 8.48999 8810 ft 286 kts 68°
2026-05-04 19:51 50.13095 8.51761 8799 ft 267 kts 68°
2026-05-04 19:51 50.13736 8.54456 8410 ft 266 kts 68°
2026-05-04 19:52 50.14379 8.57170 7991 ft 264 kts 68°
2026-05-04 19:52 50.15007 8.59805 8016 ft 265 kts 68°
2026-05-04 19:52 50.15650 8.62484 8010 ft 260 kts 68°
2026-05-04 19:52 50.16292 8.65187 8016 ft 266 kts 68°
2026-05-04 19:53 50.16926 8.67858 8013 ft 266 kts 69°
2026-05-04 19:53 50.17566 8.70564 8018 ft 264 kts 68°
2026-05-04 19:53 50.18208 8.73271 8021 ft 266 kts 69°
2026-05-04 19:53 50.18837 8.75934 8012 ft 265 kts 68°
2026-05-04 19:54 50.19484 8.78647 8020 ft 265 kts 68°
2026-05-04 19:54 50.20116 8.81318 7933 ft 260 kts 69°
2026-05-04 19:54 50.20743 8.83992 7416 ft 264 kts 69°
2026-05-04 19:54 50.21371 8.86677 7038 ft 261 kts 69°
2026-05-04 19:55 50.21988 8.89286 7019 ft 258 kts 68°
2026-05-04 19:55 50.22599 8.91899 6813 ft 256 kts 69°
2026-05-04 19:55 50.23217 8.94546 6283 ft 261 kts 69°
2026-05-04 19:55 50.23835 8.97179 5996 ft 254 kts 69°
2026-05-04 19:56 50.24441 8.99780 6039 ft 261 kts 69°
2026-05-04 19:56 50.25054 9.02392 6054 ft 253 kts 69°
2026-05-04 19:56 50.25660 9.05017 6019 ft 255 kts 71°
2026-05-04 19:56 50.25710 9.07727 6023 ft 260 kts 107°
2026-05-04 19:57 50.24745 9.09976 6013 ft 248 kts 146°
2026-05-04 19:57 50.23137 9.10802 6011 ft 239 kts 184°
2026-05-04 19:57 50.21623 9.10047 5549 ft 230 kts 219°
2026-05-04 19:57 50.20509 9.08268 5105 ft 228 kts 232°
2026-05-04 19:58 50.19492 9.06393 4720 ft 226 kts 231°
2026-05-04 19:58 50.18444 9.04553 4290 ft 226 kts 230°
2026-05-04 19:58 50.17410 9.02746 4002 ft 218 kts 231°
2026-05-04 19:58 50.16410 9.00976 4037 ft 227 kts 231°
2026-05-04 19:59 50.15388 8.99182 4034 ft 222 kts 231°
2026-05-04 19:59 50.14352 8.97364 4025 ft 221 kts 231°
2026-05-04 19:59 50.13319 8.95539 4027 ft 226 kts 231°
2026-05-04 19:59 50.12331 8.93674 4028 ft 224 kts 240°
2026-05-04 20:00 50.11759 8.91441 4026 ft 222 kts 253°
2026-05-04 20:00 50.11265 8.89222 4020 ft 208 kts 252°
2026-05-04 20:00 50.10768 8.87165 3840 ft 198 kts 251°
2026-05-04 20:00 50.10301 8.85207 3674 ft 185 kts 251°
2026-05-04 20:01 50.09872 8.83362 3502 ft 181 kts 251°
2026-05-04 20:01 50.09433 8.81542 3329 ft 178 kts 251°
2026-05-04 20:01 50.09011 8.79751 3157 ft 178 kts 251°
2026-05-04 20:01 50.08593 8.77950 2983 ft 178 kts 251°
2026-05-04 20:02 50.08165 8.76153 2793 ft 176 kts 251°
2026-05-04 20:02 50.07737 8.74361 2624 ft 176 kts 251°
2026-05-04 20:02 50.07317 8.72584 2451 ft 172 kts 251°
2026-05-04 20:02 50.06924 8.70926 2264 ft 154 kts 251°
2026-05-04 20:03 50.06568 8.69422 2058 ft 143 kts 251°
2026-05-04 20:03 50.06263 8.68138 1873 ft 139 kts 251°
2026-05-04 20:03 50.06023 8.67131 1725 ft 138 kts 251°
2026-05-04 20:03 50.05692 8.65739 1522 ft 136 kts 251°
2026-05-04 20:04 50.05365 8.64364 1291 ft 135 kts 251°
2026-05-04 20:04 50.05041 8.63005 1032 ft 134 kts 251°
2026-05-04 20:04 50.04718 8.61645 804 ft 134 kts 251°
2026-05-04 20:04 50.04398 8.60304 629 ft 132 kts 250°
2026-05-04 20:05 50.04080 8.58958 471 ft 134 kts 250°
2026-05-04 20:05 50.03764 8.57618 369 ft 126 kts 250°
2026-05-04 20:05 50.03554 8.56752 359 ft 50 kts 250°
2026-05-04 20:05 50.03462 8.56369 365 ft 33 kts 249°
2026-05-04 20:06 50.03433 8.56116 361 ft 21 kts 278°
2026-05-04 20:06 50.03454 8.55915 355 ft 17 kts 279°
2026-05-04 20:06 50.03471 8.55753 354 ft 13 kts 279°
2026-05-04 20:06 50.03484 8.55626 352 ft 15 kts 279°
2026-05-04 20:07 50.03486 8.55436 348 ft 17 kts 250°
2026-05-04 20:07 50.03450 8.55296 346 ft 11 kts 249°
2026-05-04 20:07 50.03425 8.55187 349 ft 11 kts 250°
2026-05-04 20:07 50.03399 8.55072 354 ft 12 kts 250°
2026-05-04 20:08 50.03401 8.54952 346 ft 11 kts 293°
2026-05-04 20:08 50.03447 8.54855 350 ft 11 kts 328°
2026-05-04 20:08 50.03485 8.54829 351 ft 0 kts 339°
2026-05-04 20:09 50.03511 8.54814 349 ft 3 kts 339°
2026-05-04 20:10 50.03591 8.54767 349 ft 15 kts 340°
2026-05-04 20:10 50.03681 8.54716 351 ft 11 kts 340°
2026-05-04 20:10 50.03690 8.54712 349 ft 0 kts 341°
2026-05-04 20:12 50.03701 8.54707 347 ft 4 kts 345°
2026-05-04 20:12 50.03749 8.54728 355 ft 8 kts 34°
2026-05-04 20:12 50.03780 8.54824 356 ft 11 kts 69°
2026-05-04 20:12 50.03803 8.54919 351 ft 8 kts 69°
2026-05-04 20:13 50.03811 8.54950 354 ft 0 kts 69°
2026-05-04 20:15 50.03812 8.54956 353 ft 3 kts 69°
2026-05-04 20:15 50.03832 8.55042 356 ft 14 kts 70°
2026-05-04 20:15 50.03877 8.55232 354 ft 25 kts 70°
2026-05-04 20:16 50.03932 8.55459 361 ft 19 kts 69°
2026-05-04 20:16 50.03973 8.55632 359 ft 15 kts 70°
2026-05-04 20:16 50.04004 8.55762 360 ft 10 kts 69°
2026-05-04 20:16 50.04020 8.55829 355 ft 0 kts 70°
2026-05-04 20:19 50.04027 8.55861 361 ft 3 kts 70°
2026-05-04 20:20 50.04038 8.55907 355 ft 4 kts 70°
2026-05-04 20:20 50.04065 8.56018 353 ft 13 kts 69°
2026-05-04 20:20 50.04141 8.56336 362 ft 36 kts 69°
2026-05-04 20:20 50.04217 8.56655 362 ft 26 kts 70°
2026-05-04 20:21 50.04290 8.56811 366 ft 14 kts 22°
2026-05-04 20:21 50.04389 8.56839 365 ft 15 kts 10°
2026-05-04 20:21 50.04643 8.56929 361 ft 17 kts 20°
2026-05-04 20:22 50.04732 8.56953 360 ft 11 kts 336°
2026-05-04 20:22 50.04752 8.56885 361 ft 3 kts 291°
2026-05-04 20:22 50.04752 8.56884 361 ft 0 kts 291°